UAL1642 KDCA-KTPA

Flight info

Callsign UAL1642
Flight time N/A
Altitude 34000
Route AMEEE1 SCOOB PAACK Q97 ELMSZ JROSS Q409 PUPYY BAAMF DADES2
Aircraft A320/M-SDE3FGHIRWY/LB1

Departure

Time 2026-05-06 19:30
Airport Ronald Reagan Washington National Airport (KDCA)

Arrival

Time N/A
Airport Tampa International Airport (KTPA)
Time Latitude Longitude Altitude Speed Heading
2026-05-06 19:10 38.85560 -77.04220 24 ft 0 kts 338°
2026-05-06 19:20 38.85560 -77.04219 24 ft 0 kts 338°
2026-05-06 19:21 38.85558 -77.04218 24 ft 1 kts 338°
2026-05-06 19:22 38.85542 -77.04211 26 ft 3 kts 353°
2026-05-06 19:22 38.85523 -77.04212 25 ft 3 kts 21°
2026-05-06 19:22 38.85507 -77.04225 26 ft 3 kts 56°
2026-05-06 19:22 38.85501 -77.04238 28 ft 0 kts 72°
2026-05-06 19:23 38.85501 -77.04239 24 ft 0 kts 72°
2026-05-06 19:26 38.85502 -77.04232 26 ft 3 kts 72°
2026-05-06 19:26 38.85512 -77.04191 24 ft 6 kts 73°
2026-05-06 19:26 38.85527 -77.04129 27 ft 8 kts 72°
2026-05-06 19:27 38.85547 -77.04051 26 ft 10 kts 72°
2026-05-06 19:27 38.85567 -77.03978 24 ft 7 kts 54°
2026-05-06 19:27 38.85619 -77.03963 25 ft 9 kts 355°
2026-05-06 19:27 38.85684 -77.03970 27 ft 10 kts 355°
2026-05-06 19:28 38.85755 -77.03977 27 ft 11 kts 355°
2026-05-06 19:28 38.85837 -77.03985 25 ft 13 kts 355°
2026-05-06 19:28 38.85929 -77.03983 24 ft 11 kts 14°
2026-05-06 19:28 38.85995 -77.03959 24 ft 10 kts 16°
2026-05-06 19:29 38.86066 -77.03930 24 ft 12 kts 27°
2026-05-06 19:29 38.86048 -77.03863 23 ft 11 kts 174°
2026-05-06 19:29 38.85949 -77.03855 27 ft 30 kts 176°
2026-05-06 19:29 38.85450 -77.03807 28 ft 110 kts 175°
2026-05-06 19:30 38.84522 -77.03708 314 ft 140 kts 178°
2026-05-06 19:30 38.83511 -77.03600 981 ft 149 kts 184°
2026-05-06 19:30 38.82441 -77.03574 1727 ft 157 kts 186°
2026-05-06 19:30 38.81317 -77.03568 2173 ft 170 kts 186°
2026-05-06 19:31 38.80058 -77.03563 2384 ft 194 kts 186°
2026-05-06 19:31 38.78626 -77.03552 2672 ft 218 kts 185°
2026-05-06 19:31 38.75221 -77.04224 3775 ft 244 kts 214°
2026-05-06 19:32 38.74079 -77.05477 4416 ft 246 kts 229°
2026-05-06 19:32 38.72900 -77.07077 5285 ft 247 kts 230°
2026-05-06 19:32 38.71709 -77.08703 6201 ft 248 kts 231°
2026-05-06 19:32 38.70521 -77.10324 6990 ft 251 kts 231°
2026-05-06 19:33 38.69324 -77.11956 7806 ft 252 kts 231°
2026-05-06 19:33 38.68072 -77.13660 8642 ft 254 kts 230°
2026-05-06 19:33 38.66908 -77.15241 9474 ft 255 kts 230°
2026-05-06 19:33 38.65687 -77.16892 10216 ft 257 kts 230°
2026-05-06 19:34 38.64416 -77.18618 10468 ft 277 kts 230°
2026-05-06 19:34 38.63049 -77.20481 10753 ft 294 kts 230°
2026-05-06 19:34 38.61635 -77.22405 11322 ft 300 kts 230°
2026-05-06 19:34 38.60197 -77.24356 11967 ft 303 kts 230°
2026-05-06 19:35 38.58717 -77.26359 12609 ft 307 kts 230°
2026-05-06 19:35 38.57240 -77.28353 13251 ft 310 kts 230°
2026-05-06 19:35 38.55748 -77.30364 13867 ft 314 kts 231°
2026-05-06 19:35 38.54237 -77.32402 14444 ft 317 kts 231°
2026-05-06 19:36 38.52717 -77.34449 15048 ft 318 kts 231°
2026-05-06 19:36 38.51191 -77.36503 15640 ft 320 kts 232°
2026-05-06 19:36 38.49652 -77.38574 16224 ft 322 kts 232°
2026-05-06 19:36 38.48108 -77.40652 16815 ft 324 kts 232°
2026-05-06 19:37 38.46548 -77.42757 17398 ft 326 kts 233°
2026-05-06 19:37 38.44995 -77.44854 18019 ft 328 kts 233°
2026-05-06 19:37 38.43424 -77.46971 18569 ft 329 kts 234°
2026-05-06 19:37 38.42361 -77.48402 18946 ft 330 kts 233°
2026-05-06 19:38 38.40263 -77.51224 19689 ft 332 kts 233°
2026-05-06 19:38 38.38673 -77.53359 20259 ft 333 kts 233°
2026-05-06 19:38 38.37055 -77.55526 20822 ft 334 kts 233°
2026-05-06 19:38 38.35450 -77.57676 21359 ft 336 kts 233°
2026-05-06 19:39 38.33840 -77.59835 21893 ft 337 kts 233°
2026-05-06 19:39 38.32216 -77.62007 22425 ft 339 kts 233°
2026-05-06 19:39 38.30587 -77.64185 22929 ft 341 kts 233°